Location: Buffign�court
(47.8126°N, 6.0176°E)
Time: 17:49:07
(UTC+00:00)

Lacrosse 5 - Pass Details

Date: 16 June 2021
Orbit: 715 x 724 km, 57.0° (Epoch: 28 July)

Event Time Altitude Azimuth Distance (km) Brightness Sun altitude
Rises 21:05:27 0° 302° (WNW) 3,126 6.6 -11.1°
Reaches altitude 10° 21:08:02 10° 293° (WNW) 2,204 5.3 -11.4°
Maximum altitude 21:12:28 31° 232° (SW) 1,237 3.0 -11.8°
Enters shadow 21:16:11 14° 175° (S) 1,961 3.6 -12.1°
